GW2276 Weather Reports


Display with metric or nautical units.
time (UTC)temp
F
wind
direction
speed
MPH
gust
MPH
rain 1hr
in
rain 24hr
in
rain mn
in
humidity
%
barometer
mb
20260504185035 72 248 7.0 17.0 0.00 0.00 0.00 34 1005.3
20260504184558 72 191 9.0 17.0 0.00 0.00 0.00 37 1005.3
20260504184036 72 229 8.0 14.0 0.00 0.00 0.00 35 1005.3
20260504183536 72 226 7.0 16.0 0.00 0.00 0.00 36 1005.3
20260504183046 71 269 8.0 16.0 0.00 0.00 0.00 36 1005.4
20260504182539 71 211 7.0 12.0 0.00 0.00 0.00 38 1005.5
20260504182038 70 228 6.0 13.0 0.00 0.00 0.00 43 1005.5
20260504181551 70 266 6.0 18.0 0.00 0.00 0.00 41 1005.3
20260504181037 70 244 7.0 18.0 0.00 0.00 0.00 40 1005.4
20260504180537 70 243 7.0 18.0 0.00 0.00 0.00 39 1005.5
20260504180050 70 256 9.0 18.0 0.00 0.00 0.00 38 1005.6
20260504175538 70 269 7.0 14.0 0.00 0.00 0.00 39 1005.6
20260504175037 70 240 6.0 14.0 0.00 0.00 0.00 40 1005.6
20260504174552 69 215 8.0 15.0 0.00 0.00 0.00 40 1005.5
20260504174038 69 209 9.0 15.0 0.00 0.00 0.00 39 1005.7
20260504173538 68 218 6.0 12.0 0.00 0.00 0.00 42 1005.6
20260504173050 68 249 6.0 11.0 0.00 0.00 0.00 43 1005.8
20260504172537 68 252 5.0 10.0 0.00 0.00 0.00 44 1005.8
20260504172038 68 120 5.0 11.0 0.00 0.00 0.00 43 1005.8
20260504171552 68 211 4.0 15.0 0.00 0.00 0.00 45 1005.9
20260504171037 68 219 7.0 17.0 0.00 0.00 0.00 44 1005.9
20260504170538 68 239 8.0 17.0 0.00 0.00 0.00 44 1006.0
20260504151036 63 180 7.0 16.0 0.00 0.00 0.00 45 1006.6
20260504150537 63 232 6.0 15.0 0.00 0.00 0.00 45 1006.6
20260504141036 60 145 7.0 14.0 0.00 0.00 0.00 46 1007.2
20260504140537 60 165 6.0 13.0 0.00 0.00 0.00 48 1007.1
20260504130537 55 167 4.0 17.0 0.00 0.00 0.00 52 1008.1
20260504110537 50 175 4.0 11.0 0.00 0.00 0.00 57 1007.9
20260504100537 50 202 3.0 11.0 0.00 0.00 0.00 55 1007.9
20260504081542 50 219 3.0 10.0 0.00 0.00 0.00 54 1008.3
20260504081037 50 151 3.0 11.0 0.00 0.00 0.00 54 1008.3
20260504080537 50 157 4.0 11.0 0.00 0.00 0.00 54 1008.3
20260504050536 50 167 0.0 5.0 0.00 0.00 0.00 53 1009.0
20260504045536 50 174 1.0 5.0 0.00 0.00 0.00 53 1009.0
20260504045035 50 160 1.0 3.0 0.00 0.00 0.00 54 1009.0
20260504044557 51 0 1.0 2.0 0.00 0.00 0.00 51 1009.1
20260504044037 51 167 0.0 5.0 0.00 0.00 0.00 51 1009.2
20260504043554 51 0 0.0 5.0 0.00 0.00 0.00 51 1009.1
20260504043043 52 157 1.0 5.0 0.00 0.00 0.00 49 1009.2
20260504042537 52 145 1.0 7.0 0.00 0.00 0.00 50 1009.2
20260504042038 52 153 1.0 7.0 0.00 0.00 0.00 49 1009.2
20260504041541 52 169 2.0 4.0 0.00 0.00 0.00 49 1009.1
20260504041036 52 0 1.0 5.0 0.00 0.00 0.00 49 1009.2
20260504040537 52 169 0.0 5.0 0.00 0.00 0.00 50 1009.2
20260504040045 51 139 1.0 5.0 0.00 0.00 0.00 50 1009.2
20260504035540 51 176 1.0 5.0 0.00 0.00 0.00 51 1009.3
20260504035036 51 143 0.0 3.0 0.00 0.00 0.00 52 1009.2
20260504034600 51 274 0.0 2.0 0.00 0.00 0.00 53 1009.3
20260504034036 51 0 0.0 2.0 0.00 0.00 0.00 52 1009.2
20260504033536 52 179 0.0 2.0 0.00 0.00 0.00 52 1009.2
20260504033044 52 0 0.0 3.0 0.00 0.00 0.00 52 1009.2
20260504032536 52 0 0.0 3.0 0.00 0.00 0.00 49 1009.3
20260504032037 52 153 0.0 4.0 0.00 0.00 0.00 50 1009.4
20260504031542 52 148 1.0 4.0 0.00 0.00 0.00 51 1009.5
20260504031035 52 120 0.0 1.0 0.00 0.00 0.00 50 1009.6
20260504030535 52 155 0.0 2.0 0.00 0.00 0.00 50 1009.6
20260504030044 52 0 0.0 3.0 0.00 0.00 0.00 48 1009.5
20260504025535 53 179 1.0 3.0 0.00 0.00 0.00 46 1009.5
20260504025036 53 155 0.0 2.0 0.00 0.00 0.00 46 1009.6
20260504024545 53 177 0.0 2.0 0.00 0.00 0.00 45 1009.7
20260504024037 53 149 1.0 2.0 0.00 0.00 0.00 44 1009.7
20260504023536 53 198 0.0 2.0 0.00 0.00 0.00 45 1009.6
20260504023040 54 195 1.0 2.0 0.00 0.00 0.00 43 1009.7
20260504022536 54 0 0.0 2.0 0.00 0.00 0.00 43 1009.7
20260504022037 54 0 0.0 3.0 0.00 0.00 0.00 44 1009.8
20260504021543 54 247 1.0 3.0 0.00 0.00 0.00 42 1009.8
20260504021037 54 0 0.0 2.0 0.00 0.00 0.00 43 1009.8
20260504020535 54 300 0.0 3.0 0.00 0.00 0.00 43 1009.8
20260504020042 55 266 1.0 3.0 0.00 0.00 0.00 41 1009.9
20260504015536 55 236 1.0 5.0 0.00 0.00 0.00 41 1009.9
20260504015036 55 281 1.0 5.0 0.00 0.00 0.00 41 1010.0
20260504014553 55 252 1.0 5.0 0.00 0.00 0.00 41 1010.0
20260504014036 55 205 1.0 5.0 0.00 0.00 0.00 41 1010.0
20260504013536 55 274 2.0 5.0 0.00 0.00 0.00 42 1010.1
20260504013047 55 286 2.0 5.0 0.00 0.00 0.00 41 1010.0
20260504012537 55 252 2.0 11.0 0.00 0.00 0.00 41 1010.0
20260504012036 55 233 2.0 11.0 0.00 0.00 0.00 40 1010.0
20260504011545 55 186 3.0 11.0 0.00 0.00 0.00 41 1009.9
20260504011035 55 205 1.0 6.0 0.00 0.00 0.00 41 1009.9
20260504010537 55 264 3.0 7.0 0.00 0.00 0.00 40 1009.9
20260504010045 55 211 2.0 8.0 0.00 0.00 0.00 40 1009.8
20260504005536 55 261 2.0 8.0 0.00 0.00 0.00 41 1009.8
20260504005036 55 198 3.0 13.0 0.00 0.00 0.00 40 1009.8
20260504004543 55 243 7.0 13.0 0.00 0.00 0.00 40 1009.8
20260504004036 55 293 7.0 17.0 0.00 0.00 0.00 38 1009.9
20260504003536 56 167 6.0 17.0 0.00 0.00 0.00 38 1009.8
20260504003052 55 243 5.0 10.0 0.00 0.00 0.00 39 1009.8
20260504002536 55 277 4.0 10.0 0.00 0.00 0.00 40 1009.7
20260504002035 55 261 2.0 10.0 0.00 0.00 0.00 41 1009.6
20260504001542 55 244 3.0 10.0 0.00 0.00 0.00 40 1009.5
20260504001037 55 286 3.0 7.0 0.00 0.00 0.00 40 1009.2
20260504000536 55 297 3.0 7.0 0.00 0.00 0.00 41 1009.1
20260504000046 55 261 4.0 7.0 0.00 0.00 0.00 40 1009.1
20260503235538 55 250 0.0 4.0 0.00 0.00 0.00 39 1009.1
20260503235036 55 271 1.0 5.0 0.00 0.00 0.00 38 1008.9
20260503234548 55 164 0.0 5.0 0.00 0.00 0.00 39 1008.9
20260503234036 55 184 2.0 5.0 0.00 0.00 0.00 39 1008.9
20260503233536 56 238 2.0 5.0 0.00 0.00 0.00 39 1008.8
20260503233042 56 323 2.0 9.0 0.00 0.00 0.00 39 1008.9
20260503232535 56 266 3.0 10.0 0.00 0.00 0.00 38 1008.8
20260503232035 56 197 5.0 14.0 0.00 0.00 0.00 39 1008.9
20260503231544 56 259 6.0 17.0 0.00 0.00 0.00 38 1008.9
20260503231036 56 333 8.0 17.0 0.00 0.00 0.00 38 1009.1
20260503230537 56 307 7.0 17.0 0.00 0.00 0.00 38 1009.1
20260503230044 56 229 6.0 15.0 0.00 0.00 0.00 40 1009.0
20260503225535 56 322 6.0 15.0 0.00 0.00 0.00 40 1009.0
20260503225037 55 278 6.0 14.0 0.00 0.00 0.00 39 1008.8
20260503224546 55 341 1.0 4.0 0.00 0.00 0.00 44 1008.9
20260503224036 56 0 0.0 6.0 0.00 0.00 0.00 45 1008.7
20260503223536 56 282 2.0 6.0 0.00 0.00 0.00 41 1008.8
20260503223038 56 243 1.0 8.0 0.00 0.00 0.00 41 1008.7
20260503222535 56 232 1.0 8.0 0.00 0.00 0.00 41 1008.7
20260503222035 56 283 2.0 6.0 0.00 0.00 0.00 41 1008.6
20260503221543 56 160 2.0 5.0 0.00 0.00 0.00 41 1008.7
20260503221038 56 163 3.0 7.0 0.00 0.00 0.00 42 1008.7
20260503220538 56 161 3.0 8.0 0.00 0.00 0.00 43 1008.8
20260503220049 56 197 2.0 8.0 0.00 0.00 0.00 41 1008.9
20260503215538 56 285 3.0 8.0 0.00 0.00 0.00 42 1008.8
20260503215039 56 266 4.0 12.0 0.00 0.00 0.00 42 1008.9
20260503214549 56 261 4.0 12.0 0.00 0.00 0.00 42 1008.9
20260503214038 56 283 5.0 12.0 0.00 0.00 0.00 42 1008.9
20260503213537 56 223 4.0 12.0 0.00 0.00 0.00 42 1008.8
20260503213056 56 245 5.0 11.0 0.00 0.00 0.00 40 1008.8
20260503212539 56 198 3.0 11.0 0.00 0.00 0.00 42 1008.9
20260503212038 56 240 5.0 11.0 0.00 0.00 0.00 42 1008.8
20260503211550 56 271 2.0 8.0 0.00 0.00 0.00 42 1008.8
20260503211038 56 254 4.0 8.0 0.00 0.00 0.00 41 1008.8
20260503210538 56 255 1.0 6.0 0.00 0.00 0.00 42 1008.9
20260503210047 56 239 1.0 4.0 0.00 0.00 0.00 41 1008.9
20260503205538 55 219 2.0 4.0 0.00 0.00 0.00 42 1009.0
20260503205038 55 274 2.0 4.0 0.00 0.00 0.00 42 1009.1
20260503204542 55 278 2.0 4.0 0.00 0.00 0.00 44 1009.2
20260503204040 54 224 1.0 5.0 0.00 0.00 0.00 43 1009.2
20260503203538 54 227 1.0 5.0 0.00 0.00 0.00 44 1009.3
20260503203041 54 216 2.0 6.0 0.00 0.00 0.00 44 1009.4
20260503202537 54 196 3.0 7.0 0.00 0.00 0.00 44 1009.5
20260503202037 54 225 3.0 7.0 0.00 0.00 0.00 43 1009.5
20260503201546 54 264 4.0 8.0 0.00 0.00 0.00 45 1009.6
20260503201038 54 298 4.0 8.0 0.00 0.00 0.00 44 1009.6
20260503200542 54 281 4.0 8.0 0.00 0.00 0.00 43 1009.7
20260503200050 54 292 3.0 7.0 0.00 0.00 0.00 45 1009.7
20260503195538 54 286 3.0 8.0 0.00 0.00 0.00 46 1009.8
20260503195038 54 302 3.0 10.0 0.00 0.00 0.00 45 1009.9
20260503194549 54 291 3.0 10.0 0.00 0.00 0.00 47 1009.9
20260503194038 53 175 3.0 7.0 0.00 0.00 0.00 46 1009.9
20260503193538 53 234 3.0 11.0 0.00 0.00 0.00 45 1010.0
20260503193047 54 262 5.0 11.0 0.00 0.00 0.00 43 1010.1
20260503192537 54 309 3.0 12.0 0.00 0.00 0.00 45 1010.0
20260503192037 54 340 5.0 12.0 0.00 0.00 0.00 43 1010.1
20260503191551 53 283 6.0 12.0 0.00 0.00 0.00 43 1010.2
20260503191035 53 266 4.0 9.0 0.00 0.00 0.00 44 1010.2
20260503190535 53 303 4.0 10.0 0.00 0.00 0.00 43 1010.3
20260503190051 53 28 4.0 14.0 0.00 0.00 0.00 42 1010.4
20260503185535 53 167 5.0 14.0 0.00 0.00 0.00 44 1010.3